Custer, SD

7:27 AM MST on February 13, 2016 (GMT -0700)
Custer County

Weather History for KCUT - December, 2011

Change the Weather History Date:

Thursday, December 29, 2011

  Actual Average Record
Temperature  
Mean Temperature 38 °F 23 °F  
Max Temperature 46 °F 34 °F 56 °F (1956)
Min Temperature 30 °F 13 °F -24 °F (1946)
Degree Days  
Heating Degree Days 27 42  
Month to date heating degree days 1148 1207  
Since 1 July heating degree days 3137 3388  
Cooling Degree Days 0 0  
Month to date cooling degree days 0 0  
Year to date cooling degree days 267 177  
Moisture  
Dew Point 25 °F    
Average Humidity 69    
Maximum Humidity 92    
Minimum Humidity 45    
Precipitation  
Precipitation 0.04 in 0.01 in 0.14 in (2006)
Month to date precipitation 0.39 0.35  
Year to date precipitation 21.62 18.92  
Sea Level Pressure  
Sea Level Pressure 29.65 in    
Wind  
Wind Speed 11 mph (WNW)    
Max Wind Speed 22 mph    
Max Gust Speed 38 mph    
Visibility 10 miles    
Events Rain , Snow    
T = Trace of Precipitation, MM = Missing Value Source: NWS Daily Summary

Daily Weather History Graph

Daily Weather History Graph

Search for Another Location

Airport or City:

Trip Planner

Search our weather history database for the weather conditions in past years. The results will help you decide how hot, cold, wet, or windy it might be!

Date:

Astronomy

Dec. 29, 2011 Rise Set
Actual Time 7:27 AM MST 4:25 PM MST
Civil Twilight 6:55 AM MST 4:58 PM MST
Nautical Twilight 6:18 AM MST 5:34 PM MST
Astronomical Twilight 5:43 AM MST 6:09 PM MST
Moon 10:11 AM MST (12/29) 10:15 PM MST (12/29)
Length of Visible Light 10h 03m
Length of Day
8h 57m
Waxing Crescent, 27% of the Moon is Illuminated
Dec 29
Waxing Crescent
Dec 31
First Quarter
Jan 9
Full
Jan 16
Last Quarter
Jan 23
New

Hourly Weather History & Observations

Time (MST) Temp. Windchill Dew Point Humidity Pressure Visibility Wind Dir Wind Speed Gust Speed Precip Events Conditions
12:53 AM 30.9 °F 25.2 °F 23.0 °F 72% 29.78 in 10.0 mi WSW 5.8 mph - N/A   Clear
1:53 AM 34.0 °F 28.0 °F 24.1 °F 67% 29.74 in 10.0 mi WNW 6.9 mph - N/A   Clear
2:53 AM 34.0 °F 28.8 °F 24.1 °F 67% 29.73 in 10.0 mi West 5.8 mph - N/A   Clear
3:53 AM 33.1 °F 26.1 °F 27.0 °F 78% 29.71 in 10.0 mi WSW 8.1 mph - N/A   Clear
4:53 AM 32.0 °F 26.4 °F 27.0 °F 82% 29.70 in 10.0 mi WSW 5.8 mph - N/A   Clear
5:53 AM 34.0 °F 28.0 °F 28.0 °F 79% 29.68 in 10.0 mi West 6.9 mph - N/A   Clear
6:53 AM 34.0 °F 29.8 °F 28.0 °F 79% 29.64 in 10.0 mi West 4.6 mph - N/A   Clear
7:53 AM 37.0 °F 32.4 °F 28.0 °F 70% 29.60 in 10.0 mi West 5.8 mph - N/A   Clear
8:53 AM 39.0 °F 34.8 °F 28.0 °F 65% 29.60 in 10.0 mi West 5.8 mph - N/A   Clear
9:53 AM 44.1 °F - 28.0 °F 53% 29.55 in 10.0 mi Calm Calm - N/A   Clear
10:53 AM 46.0 °F 40.2 °F 27.0 °F 47% 29.53 in 10.0 mi WNW 12.7 mph 23.0 mph N/A   Clear
11:53 AM 37.0 °F 31.0 °F 33.1 °F 86% 29.58 in 10.0 mi WNW 8.1 mph 18.4 mph 0.00 in Rain Light Rain
12:02 PM 35.6 °F 29.2 °F 33.8 °F 93% 29.56 in 7.0 mi WNW 8.1 mph - 0.01 in Rain Light Rain
12:34 PM 35.6 °F 30.7 °F 33.8 °F 93% 29.53 in 10.0 mi West 5.8 mph - 0.02 in Rain Light Rain
12:53 PM 36.0 °F 25.6 °F 33.1 °F 89% 29.55 in 5.0 mi WNW 18.4 mph 27.6 mph 0.03 in Rain Light Rain
1:06 PM 35.6 °F 25.9 °F 33.8 °F 93% 29.52 in 9.0 mi WNW 16.1 mph 25.3 mph 0.01 in   Overcast
1:11 PM 35.6 °F 26.6 °F 33.8 °F 93% 29.53 in 10.0 mi WNW 13.8 mph 25.3 mph 0.01 in   Overcast
1:37 PM 37.4 °F 27.5 °F 30.2 °F 75% 29.54 in 10.0 mi NW 18.4 mph 35.7 mph 0.01 in   Scattered Clouds
1:53 PM 35.1 °F 25.9 °F 28.0 °F 76% 29.58 in 7.0 mi NNW 13.8 mph 38.0 mph 0.01 in Snow Light Snow
2:53 PM 36.0 °F 24.7 °F 23.0 °F 59% 29.61 in 10.0 mi NW 21.9 mph 33.4 mph 0.00 in   Clear
3:53 PM 34.0 °F 25.5 °F 23.0 °F 64% 29.66 in 10.0 mi WNW 11.5 mph 20.7 mph N/A   Partly Cloudy
4:53 PM 33.1 °F 23.0 °F 21.9 °F 64% 29.71 in 10.0 mi WNW 15.0 mph 26.5 mph N/A   Clear
5:53 PM 32.0 °F 24.2 °F 21.0 °F 64% 29.74 in 10.0 mi West 9.2 mph - N/A   Scattered Clouds
6:53 PM 33.1 °F 23.0 °F 17.1 °F 52% 29.74 in 10.0 mi WNW 15.0 mph 29.9 mph N/A   Clear
7:53 PM 33.1 °F 22.6 °F 16.0 °F 50% 29.76 in 10.0 mi WNW 16.1 mph 24.2 mph N/A   Clear
8:53 PM 32.0 °F 21.2 °F 16.0 °F 52% 29.75 in 10.0 mi WNW 16.1 mph 26.5 mph N/A   Clear
9:53 PM 30.9 °F 19.8 °F 15.1 °F 52% 29.74 in 10.0 mi WNW 16.1 mph 28.8 mph N/A   Clear
10:53 PM 30.9 °F 21.7 °F 14.0 °F 50% 29.75 in 10.0 mi WNW 11.5 mph 26.5 mph N/A   Clear
11:53 PM 30.0 °F 17.9 °F 14.0 °F 51% 29.82 in 10.0 mi WNW 18.4 mph 27.6 mph N/A   Clear